This is the latest recevied weather packets stored in our database for station/object IZ6UQU-13. If no packets are shown the sender has not sent any weather packets the latest 10 day(s).
| Time | Temp. | Humidity | Pressure | Rain* | Wind** | Luminosity | Snow |
|---|---|---|---|---|---|---|---|
| 1777441802 | 10.56° C | 77% | 957.6 hPa | 0 mm | - | - | - |
| 1777441502 | 10.56° C | 75% | 957.5 hPa | 0 mm | - | - | - |
| 1777441202 | 11.11° C | 74% | 957.6 hPa | 0 mm | - | - | - |
| 1777440902 | 11.11° C | 78% | 957.6 hPa | 0 mm | - | - | - |
| 1777440602 | 10° C | 81% | 957.6 hPa | 0 mm | - | - | - |
| 1777440302 | 8.89° C | 82% | 957.6 hPa | 0 mm | - | - | - |
| 1777440001 | 7.78° C | 84% | 957.7 hPa | 0 mm | - | - | - |
| 1777439701 | 7.22° C | 87% | 957.6 hPa | 0 mm | - | - | - |
| 1777439402 | 6.67° C | 87% | 957.7 hPa | 0 mm | - | - | - |
| 1777439102 | 6.11° C | 87% | 957.6 hPa | 0 mm | - | - | - |
| 1777438802 | 6.11° C | 88% | 957.6 hPa | 0 mm | - | - | - |
| 1777438502 | 5.56° C | 87% | 957.5 hPa | 0 mm | - | - | - |
| 1777438202 | 5.56° C | 88% | 957.5 hPa | 0 mm | - | - | - |
| 1777437901 | 5.56° C | 88% | 957.5 hPa | 0 mm | - | - | - |
| 1777437602 | 5.56° C | 88% | 957.5 hPa | 0 mm | - | - | - |
| 1777437301 | 5.56° C | 88% | 957.5 hPa | 0 mm | - | - | - |
| 1777437002 | 5.56° C | 88% | 957.4 hPa | 0 mm | - | - | - |
| 1777436701 | 5.56° C | 89% | 957.4 hPa | 0 mm | - | - | - |
| 1777436401 | 5.56° C | 89% | 957.4 hPa | 0 mm | - | - | - |
| 1777436101 | 5.56° C | 88% | 957.4 hPa | 0 mm | - | - | - |
| 1777435801 | 5.56° C | 87% | 957.4 hPa | 0 mm | - | - | - |
| 1777435501 | 5.56° C | 87% | 957.4 hPa | 0 mm | - | - | - |
| 1777435201 | 5.56° C | 87% | 957.3 hPa | 0 mm | - | - | - |
| 1777434901 | 5.56° C | 86% | 957.4 hPa | 0 mm | - | - | - |
| 1777434601 | 5.56° C | 85% | 957.4 hPa | 0 mm | - | - | - |
* Rain latest hour (hover to see other rain measurements)
** Current wind speed in m/s (hover to see current wind gust speed)